Find OneWeb SL0298

NORAD ID: 49087 Int'l Des: 2021-075 Owner: ONEWEBN Country: UK Constellation: oneweb operational
LEOCIRCULARPOLARONEWEB_TYPE

实时位置

正在加载3D地球...

关于 OneWeb SL0298

正在加载描述...

即将过境

Passes for default location (London). Set your location on the main map for personalized predictions.

高度历史

Loading altitude history...

两行轨道根数

1 49087U 21075N 26123.92131146 .00000055 00000-0 10921-3 0 9990
2 49087 87.9178 14.6652 0001918 84.1271 276.0079 13.17647512227791
Epoch: May 3, 2026 • Age: 11 hours

当前状态

高度 1206.0 km
速度 7.26 km/s
星下点 84.24°N, 31.21°E
发射日期 Aug 21, 2021
运行时间 4.7 years
类型 internet

技术详情

分类 Payload
质量 148.00 kg
干质量 140.00 kg
总质量 148.00 kg
长度 1.30 m
直径 1.00 m
跨度 5.00 m
形状 Trapezoid+2 pan
制造商 ONEWUS
平台类型 ARROW
阶段状态 In Orbit
所有者/国家 ONEWEBN/UK

Most Searched